Vertical_Velocity
-1 -0 -2 3 1 1 -1 0 4 -2 -6 3 -4 10 9 1 2 -2 -1 -1 -2 1 2 16 0 0 -0 0 13 8 -2 3 0 -1 2 1 1 -1
1 -1 -0 1 1 2 2 3 0 3 -11 12 -1 4 6 -3 1 -6 3 -1 3 -1 5 6 -0 -1 2 -5 7 2 3 2 4 6 0 1 1 0
0 -1 -0 1 3 2 2 0 1 2 -19 20 2 2 1 5 1 -3 -2 -7 -2 3 0 -6 -1 -4 -3 12 6 -3 -0 4 -2 -2 -0 0 1 1
0 -2 3 -0 1 3 4 2 3 5 1 4 5 3 -1 3 1 -5 -1 -2 6 7 -3 -2 -2 -0 -4 16 -2 -0 -2 -2 -4 4 -1 1 3 -1
-0 -1 2 1 7 4 4 2 1 1 -1 2 13 -3 -1 5 2 -6 -2 1 -0 12 -5 -1 3 -5 -0 -2 -6 -1 1 2 -0 7 5 1 4 0
0 -1 2 1 3 2 1 -1 6 6 10 0 3 3 -4 -0 0 -0 -3 1 4 -3 -7 -1 1 -3 1 -4 -2 0 -2 1 0 5 3 -1 -0 2
-1 -2 -2 -2 -1 -1 -0 1 10 12 5 3 1 -4 1 3 5 1 -2 2 -2 -1 0 -1 -7 3 -5 -2 -3 2 -2 -0 -1 2 4 5 3 1
-1 -3 -1 -2 -0 -2 -0 1 -1 3 5 -3 5 -0 1 -1 2 3 -3 -0 -16 3 2 -1 -3 -1 -2 -0 0 3 3 2 9 4 1 2 -1 2
-2 -4 -1 -1 -2 1 -2 0 -4 3 3 -2 2 3 2 4 7 1 3 1 4 10 4 7 -0 -1 -1 -0 0 4 5 2 6 12 6 4 2 2
-1 -3 -1 -2 -1 2 1 -1 -3 0 3 -1 -1 -1 4 1 -4 6 2 -3 -11 -4 -7 -5 4 10 10 16 6 6 5 3 7 6 4 -2 1 1
-0 0 -1 -2 -1 -2 -0 -3 -2 -1 4 3 -2 -0 1 0 -3 -2 -3 -6 21 0 10 11 -1 0 -2 9 18 3 1 1 -1 -2 -2 1 1 3
-0 1 -1 -0 0 -1 0 -4 4 2 2 2 10 0 1 -1 2 -0 15 36 12 7 6 -4 9 8 18 19 12 1 2 -3 2 1 -1 -5 1 3
-2 0 -2 -1 -3 0 -1 -0 -1 -1 3 3 1 4 1 -2 -1 7 -7 -1 4 8 1 15 13 2 1 3 2 4 1 1 -2 -2 0 -0 2 2
1 2 0 -1 -2 -2 -4 -2 1 1 2 0 1 -1 -4 -3 -3 -1 0 7 14 8 9 8 2 5 7 8 5 2 -1 -7 -1 -2 -0 0 1 7
-0 -0 -0 -3 -1 -2 0 -1 -2 -0 -2 -0 -3 -4 -1 10 9 8 13 11 9 3 2 -2 -7 -7 -6 -7 -6 -3 -1 -5 -1 -1 0 2 3 4
-0 -1 -1 -0 0 -2 2 -1 -2 -2 -2 -1 0 -0 -1 0 2 1 2 4 1 -1 -1 -2 -1 0 -2 1 -1 -3 -0 -1 1 -2 -1 -1 4 -2
0 0 -1 -1 -0 0 0 -1 -1 -0 1 0 0 -0 0 1 2 2 1 0 1 1 0 1 1 -0 -1 2 1 -1 4 1 -2 -2 -2 2 -3 -2
1 1 2 1 1 0 0 1 1 1 0 0 0 1 1 -0 -0 -2 -2 -3 -3 -1 -2 -1 0 1 4 2 5 0 1 2 -4 -5 -5 0 4 -3
0 1 2 1 0 1 1 0 0 0 -0 -1 -0 -0 -0 0 0 1 2 2 1 0 1 2 2 4 3 3 3 5 1 -6 -0 -2 -4 -6 6 -3
0 1 2 1 1 2 0 -1 -0 0 -0 -1 -0 0 -0 -1 -1 -1 -1 -1 -1 -1 -3 -4 -3 1 -0 -0 7 0 -5 10 -2 5 4 -5 1 4
-1 -1 -1 -0 0 0 0 1 0 0 -0 -1 -1 -1 -0 1 0 -0 -1 -2 -2 -2 -4 -4 -3 -0 -2 -0 0 6 4 -12 -2 2 1 -2 5 8
1 -0 -1 -1 -0 0 0 -0 -1 -1 -2 -4 -6 -3 -1 -1 -1 -1 -1 -1 -1 0 1 0 -0 0 -3 0 -0 2 4 7 -6 -8 -5 -1 -3 -1
-1 -1 -1 -1 -1 -1 -1 -1 -0 0 1 1 0 1 -0 -1 -3 -2 1 2 2 -0 1 0 -0 1 -2 -3 -3 -2 -4 -7 0 -0 -3 -4 -0 -2
Height
5656 5656 5656 5656 5656 5657 5658 5659 5661 5664 5668 5676 5680 5687 5690 5689 5693 5697 5701 5704 5708 5711 5711 5713 5714 5717 5718 5720 5722 5723 5723 5723 5723 5723 5723 5722 5721 5720
5644 5643 5642 5641 5642 5642 5643 5643 5644 5647 5649 5659 5663 5668 5670 5673 5677 5682 5686 5688 5692 5697 5698 5696 5700 5702 5705 5707 5709 5709 5710 5711 5711 5711 5711 5710 5710 5711
5631 5631 5630 5629 5629 5628 5627 5628 5629 5631 5633 5642 5645 5649 5654 5659 5661 5665 5670 5672 5678 5682 5683 5683 5687 5690 5694 5693 5695 5696 5697 5697 5698 5698 5698 5698 5699 5699
5619 5618 5616 5616 5614 5612 5610 5611 5612 5615 5619 5624 5627 5633 5638 5644 5646 5649 5655 5658 5662 5666 5666 5670 5673 5678 5680 5683 5682 5682 5683 5683 5683 5684 5684 5685 5687 5688
5607 5605 5603 5600 5597 5595 5593 5594 5597 5600 5603 5607 5611 5616 5623 5630 5633 5635 5639 5645 5647 5650 5652 5656 5660 5664 5667 5668 5669 5671 5671 5671 5671 5670 5671 5673 5675 5676
5595 5593 5589 5586 5583 5579 5577 5579 5583 5585 5589 5593 5597 5603 5609 5616 5619 5623 5626 5629 5632 5635 5639 5642 5647 5651 5656 5654 5656 5658 5659 5659 5659 5658 5660 5662 5663 5665
5584 5581 5578 5573 5568 5564 5565 5568 5569 5572 5576 5580 5584 5589 5597 5603 5606 5608 5610 5613 5616 5621 5624 5628 5633 5638 5639 5641 5642 5644 5646 5646 5645 5646 5649 5650 5652 5654
5574 5572 5568 5563 5557 5556 5556 5557 5559 5561 5566 5569 5571 5577 5584 5589 5593 5594 5597 5599 5603 5608 5609 5614 5617 5622 5624 5628 5628 5631 5632 5633 5634 5636 5638 5639 5640 5641
5566 5565 5561 5556 5551 5550 5549 5549 5550 5554 5557 5560 5561 5565 5571 5577 5582 5582 5584 5587 5589 5593 5596 5601 5605 5607 5611 5614 5616 5618 5621 5624 5624 5625 5626 5628 5629 5630
5560 5558 5555 5552 5547 5544 5544 5545 5547 5548 5549 5549 5551 5557 5562 5566 5569 5572 5573 5576 5582 5584 5589 5591 5594 5597 5599 5601 5604 5607 5608 5610 5612 5613 5614 5616 5618 5619
5553 5552 5550 5548 5544 5542 5541 5540 5542 5543 5543 5544 5546 5550 5553 5557 5560 5561 5563 5567 5569 5573 5580 5582 5584 5588 5591 5593 5594 5595 5597 5598 5598 5599 5602 5602 5604 5605
5547 5545 5545 5544 5541 5539 5537 5538 5537 5538 5539 5538 5540 5542 5546 5550 5551 5552 5555 5559 5562 5565 5567 5573 5575 5576 5579 5580 5582 5583 5584 5585 5586 5586 5588 5590 5593 5596
5543 5541 5541 5540 5538 5536 5533 5532 5534 5534 5535 5535 5536 5538 5539 5542 5545 5547 5551 5551 5554 5558 5561 5563 5564 5565 5567 5569 5570 5571 5572 5573 5575 5576 5578 5582 5585 5587
5540 5539 5537 5536 5534 5532 5531 5530 5531 5531 5531 5532 5533 5535 5536 5538 5541 5542 5545 5547 5547 5549 5551 5553 5554 5556 5558 5559 5560 5560 5562 5564 5566 5568 5569 5570 5574 5576
5534 5533 5532 5532 5531 5530 5529 5528 5528 5528 5528 5529 5530 5531 5532 5534 5536 5537 5538 5539 5539 5540 5543 5545 5547 5548 5549 5549 5551 5553 5554 5555 5557 5559 5559 5556 5559 5562
5527 5526 5526 5526 5526 5526 5525 5525 5526 5526 5526 5526 5527 5528 5529 5530 5530 5530 5531 5532 5533 5534 5535 5536 5537 5538 5540 5540 5541 5541 5543 5543 5544 5546 5546 5544 5545 5547
5518 5518 5518 5518 5518 5518 5518 5519 5519 5520 5520 5520 5521 5522 5522 5521 5521 5522 5523 5523 5524 5524 5525 5526 5526 5527 5528 5528 5527 5527 5528 5528 5528 5529 5529 5529 5529 5529
5508 5509 5510 5510 5510 5510 5510 5511 5511 5511 5511 5512 5512 5512 5512 5512 5512 5512 5513 5513 5513 5513 5513 5513 5513 5513 5514 5514 5513 5512 5512 5512 5511 5511 5512 5513 5512 5512
5498 5499 5500 5501 5501 5501 5502 5502 5502 5503 5503 5503 5503 5503 5503 5503 5502 5502 5501 5500 5500 5500 5499 5499 5499 5500 5499 5498 5497 5495 5493 5492 5493 5494 5494 5495 5497 5495
5487 5488 5489 5490 5491 5491 5492 5492 5493 5493 5493 5493 5493 5493 5493 5492 5492 5491 5490 5489 5487 5487 5485 5484 5483 5483 5482 5481 5480 5476 5474 5475 5473 5474 5474 5475 5478 5476
5475 5477 5478 5479 5480 5481 5482 5482 5482 5483 5483 5482 5482 5481 5480 5479 5478 5476 5474 5473 5471 5469 5467 5465 5464 5463 5461 5459 5458 5456 5452 5449 5450 5450 5451 5451 5452 5454
5463 5465 5467 5468 5469 5470 5470 5470 5470 5470 5470 5469 5468 5466 5465 5463 5461 5459 5457 5455 5453 5451 5448 5445 5442 5439 5436 5434 5432 5430 5427 5424 5420 5423 5424 5426 5427 5431
5451 5452 5454 5455 5456 5457 5457 5457 5456 5456 5455 5453 5451 5450 5447 5445 5444 5441 5439 5436 5433 5430 5427 5423 5419 5414 5410 5407 5404 5402 5398 5397 5396 5393 5393 5394 5396 5399